Weather History for KCMR - January, 2012

Change the Weather History Date:

Thursday, January 26, 2012

  Actual Average (KFLG) Record (KFLG)
Temperature  
Mean Temperature 40 °F 30 °F  
Max Temperature 57 °F 43 °F 60 °F (1987)
Min Temperature 23 °F 18 °F -15 °F (1937)
Degree Days  
Heating Degree Days 25 35  
Month to date heating degree days 916  
Since 1 July heating degree days 3744  
Cooling Degree Days 0 0  
Month to date cooling degree days 0  
Year to date cooling degree days 0  
Moisture  
Dew Point 20 °F    
Average Humidity 50    
Maximum Humidity 86    
Minimum Humidity 21    
Precipitation  
Precipitation 0.00 in 0.06 in 1.55 in (2013)
Month to date precipitation 1.73  
Year to date precipitation 1.73  
Snow  
Snow 0.00 in 0.80 in 13.10 in (1948)
Month to date snowfall 19.1  
Since 1 July snowfall 48.2  
Snow Depth -    
Sea Level Pressure  
Sea Level Pressure 30.32 in    
Wind  
Wind Speed 6 mph (SSW)    
Max Wind Speed 15 mph    
Max Gust Speed 23 mph    
Visibility 10 miles    
Events      
T = Trace of Precipitation, MM = Missing Value Source: NWS Daily Summary

Daily Weather History Graph

Daily Weather History Graph

Search for Another Location

Airport or City:

Trip Planner

Search our weather history database for the weather conditions in past years. The results will help you decide how hot, cold, wet, or windy it might be!

Date:

Astronomy

Jan. 26, 2012 Rise Set
Actual Time 7:32 AM MST 5:50 PM MST
Civil Twilight 7:05 AM MST 6:17 PM MST
Nautical Twilight 6:34 AM MST 6:48 PM MST
Astronomical Twilight 6:04 AM MST 7:18 PM MST
Moon 9:11 AM MST (1/26) 9:35 PM MST (1/26)
Length of Visible Light 11h 12m
Length of Day
10h 17m
Waxing Crescent, 13% of the Moon is Illuminated
Jan 26
Waxing Crescent
Jan 30
First Quarter
Feb 7
Full
Feb 14
Last Quarter
Feb 21
New

Hourly Weather History & Observations

Time (MST) Temp. Windchill Dew Point Humidity Pressure Visibility Wind Dir Wind Speed Gust Speed Precip Events Conditions
12:15 AM 28.4 °F - 17.6 °F 64% 30.39 in 10.0 mi Calm Calm - N/A   Clear
12:35 AM 28.4 °F 23.3 °F 17.6 °F 64% 30.39 in 10.0 mi SE 4.6 mph - N/A   Clear
12:55 AM 32.0 °F 27.5 °F 19.4 °F 60% 30.37 in 10.0 mi ESE 4.6 mph - N/A   Clear
1:15 AM 33.8 °F 29.6 °F 19.4 °F 56% 30.38 in 10.0 mi South 4.6 mph - N/A   Clear
1:35 AM 35.6 °F - 19.4 °F 52% 30.37 in 10.0 mi Calm Calm - N/A   Clear
1:55 AM 30.2 °F - 19.4 °F 64% 30.37 in 10.0 mi Calm Calm - N/A   Clear
2:15 AM 28.4 °F - 19.4 °F 69% 30.37 in 10.0 mi Calm Calm - N/A   Clear
2:35 AM 26.6 °F - 19.4 °F 74% 30.38 in 10.0 mi Calm Calm - N/A   Clear
2:55 AM 24.8 °F 17.9 °F 19.4 °F 80% 30.38 in 10.0 mi SSE 5.8 mph - N/A   Clear
3:15 AM 26.6 °F 21.2 °F 19.4 °F 74% 30.38 in 10.0 mi South 4.6 mph - N/A   Clear
3:35 AM 24.8 °F 16.1 °F 19.4 °F 80% 30.37 in 10.0 mi SSE 8.1 mph - N/A   Clear
3:55 AM 26.6 °F 17.5 °F 19.4 °F 74% 30.37 in 10.0 mi SSE 9.2 mph - N/A   Clear
4:15 AM 24.8 °F 16.1 °F 19.4 °F 80% 30.36 in 10.0 mi SSE 8.1 mph - N/A   Clear
4:35 AM 24.8 °F 17.9 °F 19.4 °F 80% 30.36 in 10.0 mi SSE 5.8 mph - N/A   Clear
4:55 AM 26.6 °F 19.1 °F 19.4 °F 74% 30.36 in 10.0 mi SSE 6.9 mph - N/A   Clear
5:15 AM 24.8 °F 16.1 °F 19.4 °F 80% 30.37 in 10.0 mi SSE 8.1 mph - N/A   Clear
5:35 AM 24.8 °F 16.9 °F 19.4 °F 80% 30.37 in 10.0 mi SSE 6.9 mph - N/A   Clear
5:55 AM 24.8 °F 16.1 °F 19.4 °F 80% 30.37 in 10.0 mi SSE 8.1 mph - N/A   Clear
6:15 AM 24.8 °F 19.1 °F 19.4 °F 80% 30.38 in 10.0 mi SSE 4.6 mph - N/A   Clear
6:35 AM 24.8 °F 15.3 °F 19.4 °F 80% 30.37 in 10.0 mi SSE 9.2 mph - N/A   Clear
6:55 AM 23.0 °F 13.9 °F 19.4 °F 86% 30.37 in 10.0 mi SSE 8.1 mph - N/A   Clear
7:15 AM 23.0 °F 13.1 °F 19.4 °F 86% 30.36 in 10.0 mi SSE 9.2 mph - N/A   Clear
7:35 AM 24.8 °F 14.6 °F 19.4 °F 80% 30.36 in 10.0 mi SSE 10.4 mph - N/A   Clear
7:55 AM 24.8 °F 14.6 °F 19.4 °F 80% 30.37 in 10.0 mi SSE 10.4 mph - N/A   Clear
8:15 AM 28.4 °F 19.7 °F 19.4 °F 69% 30.37 in 10.0 mi SSE 9.2 mph - N/A   Clear
8:35 AM 30.2 °F 21.9 °F 19.4 °F 64% 30.36 in 10.0 mi SSE 9.2 mph - N/A   Clear
8:55 AM 35.6 °F 29.2 °F 19.4 °F 52% 30.36 in 10.0 mi SSE 8.1 mph - N/A   Clear
9:15 AM 39.2 °F 33.6 °F 21.2 °F 49% 30.36 in 10.0 mi SSE 8.1 mph - N/A   Clear
9:35 AM 41.0 °F 37.1 °F 23.0 °F 49% 30.35 in 10.0 mi SSE 5.8 mph - N/A   Clear
9:55 AM 48.2 °F - 23.0 °F 37% 30.35 in 10.0 mi SSE 3.5 mph - N/A   Clear
10:15 AM 50.0 °F - 21.2 °F 32% 30.34 in 10.0 mi SE 8.1 mph - N/A   Clear
10:35 AM 53.6 °F - 19.4 °F 26% 30.35 in 10.0 mi Calm Calm - N/A   Clear
10:55 AM 53.6 °F - 19.4 °F 26% 30.35 in 10.0 mi Calm Calm - N/A   Clear
11:15 AM 53.6 °F - 19.4 °F 26% 30.35 in 10.0 mi WNW 8.1 mph - N/A   Clear
11:35 AM 53.6 °F - 19.4 °F 26% 30.35 in 10.0 mi WSW 8.1 mph - N/A   Clear
11:55 AM 55.4 °F - 21.2 °F 26% 30.34 in 10.0 mi West 10.4 mph - N/A   Clear
12:15 PM 55.4 °F - 21.2 °F 26% 30.33 in 10.0 mi West 10.4 mph - N/A   Clear
12:35 PM 55.4 °F - 23.0 °F 29% 30.32 in 10.0 mi WSW 8.1 mph - N/A   Clear
12:55 PM 55.4 °F - 23.0 °F 29% 30.30 in 10.0 mi WSW 8.1 mph - N/A   Clear
1:15 PM 55.4 °F - 23.0 °F 29% 30.29 in 10.0 mi WSW 8.1 mph - N/A   Clear
1:35 PM 57.2 °F - 24.8 °F 29% 30.28 in 10.0 mi West 8.1 mph - N/A   Clear
2:15 PM 57.2 °F - 23.0 °F 27% 30.26 in 10.0 mi WSW 12.7 mph - N/A   Clear
2:35 PM 57.2 °F - 23.0 °F 27% 30.25 in 10.0 mi West 11.5 mph - N/A   Clear
2:55 PM 57.2 °F - 19.4 °F 23% 30.25 in 10.0 mi West 11.5 mph 20.7 mph N/A   Clear
3:15 PM 57.2 °F - 19.4 °F 23% 30.24 in 10.0 mi West 11.5 mph 23.0 mph N/A   Clear
3:35 PM 57.2 °F - 21.2 °F 25% 30.23 in 10.0 mi West 12.7 mph 19.6 mph N/A   Clear
3:55 PM 57.2 °F - 17.6 °F 21% 30.23 in 10.0 mi West 15.0 mph 19.6 mph N/A   Clear
4:15 PM 57.2 °F - 17.6 °F 21% 30.23 in 10.0 mi WNW 15.0 mph - N/A   Clear
4:35 PM 55.4 °F - 17.6 °F 23% 30.22 in 10.0 mi WNW 11.5 mph 23.0 mph N/A   Clear
4:55 PM 55.4 °F - 17.6 °F 23% 30.21 in 10.0 mi WNW 10.4 mph 19.6 mph N/A   Clear
5:15 PM 53.6 °F - 17.6 °F 24% 30.21 in 10.0 mi WNW 10.4 mph - N/A   Clear
5:35 PM 50.0 °F - 17.6 °F 28% 30.21 in 10.0 mi WNW 8.1 mph - N/A   Clear
5:55 PM 48.2 °F - 17.6 °F 30% 30.21 in 10.0 mi WNW 5.8 mph - N/A   Clear
6:15 PM 48.2 °F - 19.4 °F 32% 30.21 in 10.0 mi West 4.6 mph - N/A   Clear
6:35 PM 44.6 °F - 19.4 °F 37% 30.21 in 10.0 mi Calm Calm - N/A   Clear
6:55 PM 44.6 °F 42.2 °F 19.4 °F 37% 30.22 in 10.0 mi West 4.6 mph - N/A   Clear
7:15 PM 42.8 °F 39.3 °F 21.2 °F 42% 30.22 in 10.0 mi WNW 5.8 mph - N/A   Clear
7:35 PM 41.0 °F - 19.4 °F 42% 30.22 in 10.0 mi Calm Calm - N/A   Clear
7:55 PM 37.4 °F 34.9 °F 19.4 °F 48% 30.21 in 10.0 mi SW 3.5 mph - N/A   Clear
8:15 PM 41.0 °F 35.8 °F 21.2 °F 45% 30.21 in 10.0 mi West 8.1 mph - N/A   Clear
8:35 PM 42.8 °F 38.0 °F 23.0 °F 46% 30.21 in 10.0 mi West 8.1 mph - N/A   Clear
8:55 PM 41.0 °F 35.2 °F 23.0 °F 49% 30.20 in 10.0 mi West 9.2 mph - N/A   Clear
9:15 PM 42.8 °F 38.6 °F 23.0 °F 46% 30.21 in 10.0 mi West 6.9 mph - N/A   Clear
9:35 PM 39.2 °F 35.9 °F 23.0 °F 52% 30.21 in 10.0 mi West 4.6 mph - N/A   Clear
9:55 PM 41.0 °F 36.4 °F 24.8 °F 53% 30.20 in 10.0 mi West 6.9 mph - N/A   Clear
10:15 PM 41.0 °F 35.2 °F 24.8 °F 53% 30.20 in 10.0 mi West 9.2 mph - N/A   Clear
10:35 PM 41.0 °F 37.1 °F 24.8 °F 53% 30.20 in 10.0 mi West 5.8 mph - N/A   Clear
10:55 PM 39.2 °F - 24.8 °F 56% 30.20 in 10.0 mi Calm Calm - N/A   Clear
11:15 PM 39.2 °F 37.0 °F 24.8 °F 56% 30.20 in 10.0 mi West 3.5 mph - N/A   Clear
11:35 PM 39.2 °F 33.6 °F 24.8 °F 56% 30.20 in 10.0 mi West 8.1 mph - N/A   Clear
11:55 PM 39.2 °F 35.0 °F 24.8 °F 56% 30.20 in 10.0 mi West 5.8 mph - N/A   Clear